timestamp,wind_dir_avg,wind_spd_avg,wind_spd_max_dir,wind_spd_gust,battery_voltage,lat,long
2021-09-17 00:14:01+00:00,280.0,6.08,274.0,6.73,12.65,47.59359,-54.27349
2021-09-17 00:24:01+00:00,268.0,6.23,264.0,6.88,12.65,47.59359,-54.27349
2021-09-17 00:34:01+00:00,264.0,5.23,262.0,6.42,12.65,47.59359,-54.27349
2021-09-17 00:44:01+00:00,267.0,4.45,271.0,5.57,12.65,47.59359,-54.27349
2021-09-17 00:54:01+00:00,274.0,5.6,275.0,6.46,12.65,47.59359,-54.27349
2021-09-17 01:04:01+00:00,279.0,5.83,282.0,6.48,12.65,47.59359,-54.27349
2021-09-17 01:14:01+00:00,287.0,5.75,299.0,7.0,12.65,47.59359,-54.27349
2021-09-17 01:24:01+00:00,289.0,5.12,289.0,6.2,12.65,47.59359,-54.27349
2021-09-17 01:34:01+00:00,290.0,7.84,293.0,8.35,12.65,47.59359,-54.27349
2021-09-17 01:44:01+00:00,302.0,8.14,301.0,9.72,12.65,47.59359,-54.27349
2021-09-17 01:54:01+00:00,308.0,9.29,311.0,10.18,12.65,47.59359,-54.27349
2021-09-17 02:04:01+00:00,305.0,9.58,309.0,10.17,12.65,47.59359,-54.27349
2021-09-17 02:14:01+00:00,307.0,9.46,306.0,10.2,12.57,47.59359,-54.27349
2021-09-17 02:24:01+00:00,304.0,8.77,304.0,9.82,12.57,47.59359,-54.27349
2021-09-17 02:34:01+00:00,306.0,8.19,305.0,9.37,12.57,47.59359,-54.27349
2021-09-17 02:44:01+00:00,312.0,8.74,308.0,9.74,12.57,47.59359,-54.27349
2021-09-17 02:54:01+00:00,306.0,9.42,308.0,10.56,12.57,47.59359,-54.27349
2021-09-17 03:04:01+00:00,313.0,10.85,311.0,12.15,12.57,47.59359,-54.27349
2021-09-17 03:14:00+00:00,306.0,9.14,308.0,10.24,12.57,47.59359,-54.27349
2021-09-17 03:24:00+00:00,309.0,9.39,308.0,10.44,12.57,47.59359,-54.27349
2021-09-17 03:34:00+00:00,305.0,8.38,308.0,9.51,12.57,47.59359,-54.27349
2021-09-17 03:44:00+00:00,296.0,7.58,297.0,8.65,12.57,47.59359,-54.27349
2021-09-17 03:54:00+00:00,300.0,7.3,303.0,8.07,12.57,47.59359,-54.27349
2021-09-17 04:04:00+00:00,293.0,6.44,299.0,7.36,12.57,47.59359,-54.27349
2021-09-17 04:14:00+00:00,292.0,5.89,289.0,7.07,12.57,47.59359,-54.27349
2021-09-17 04:24:00+00:00,298.0,6.43,302.0,7.08,12.57,47.59359,-54.27349
2021-09-17 04:34:00+00:00,297.0,6.03,302.0,6.52,12.57,47.59359,-54.27349
2021-09-17 04:44:00+00:00,297.0,5.9,300.0,6.67,12.57,47.59359,-54.27349
2021-09-17 04:54:00+00:00,295.0,4.89,286.0,5.86,12.57,47.59359,-54.27349
2021-09-17 05:04:00+00:00,271.0,4.26,266.0,4.74,12.57,47.59359,-54.27349
2021-09-17 05:14:00+00:00,288.0,5.79,287.0,6.75,12.57,47.59359,-54.27349
2021-09-17 05:24:00+00:00,288.0,3.86,292.0,4.36,12.57,47.59359,-54.27349
2021-09-17 05:34:00+00:00,305.0,4.2,304.0,4.73,12.57,47.59359,-54.27349
2021-09-17 05:44:00+00:00,316.0,4.14,322.0,5.12,12.57,47.59359,-54.27349
2021-09-17 05:54:00+00:00,325.0,2.02,323.0,2.52,12.57,47.59359,-54.27349
2021-09-17 06:04:00+00:00,306.0,3.34,323.0,4.09,12.57,47.59359,-54.27349
2021-09-17 06:14:01+00:00,298.0,4.12,289.0,5.32,12.57,47.59359,-54.27349
2021-09-17 06:24:01+00:00,310.0,3.8,308.0,4.53,12.57,47.59359,-54.27349
2021-09-17 06:34:01+00:00,287.0,4.37,289.0,5.53,12.57,47.59359,-54.27349
2021-09-17 06:44:01+00:00,294.0,3.89,295.0,4.42,12.57,47.59359,-54.27349
2021-09-17 06:54:01+00:00,317.0,4.09,315.0,4.91,12.57,47.59359,-54.27349
2021-09-17 07:04:01+00:00,310.0,4.2,310.0,5.48,12.57,47.59359,-54.27349
2021-09-17 07:14:01+00:00,319.0,5.58,308.0,6.79,12.49,47.59359,-54.27349
2021-09-17 07:24:01+00:00,331.0,5.99,330.0,6.89,12.49,47.59359,-54.27349
2021-09-17 07:34:01+00:00,338.0,6.7,346.0,8.07,12.49,47.59359,-54.27349
2021-09-17 07:44:01+00:00,334.0,6.08,329.0,7.06,12.49,47.59359,-54.27349
2021-09-17 07:54:01+00:00,323.0,7.25,324.0,8.46,12.49,47.59359,-54.27349
2021-09-17 08:04:01+00:00,325.0,7.84,329.0,8.49,12.49,47.59359,-54.27349
2021-09-17 08:14:01+00:00,319.0,7.57,317.0,8.81,12.49,47.59359,-54.27349
2021-09-17 08:24:01+00:00,309.0,8.34,304.0,10.28,12.49,47.59359,-54.27349
2021-09-17 08:34:01+00:00,306.0,8.71,303.0,10.73,12.49,47.59359,-54.27349
2021-09-17 08:44:01+00:00,320.0,5.67,329.0,6.6,12.49,47.59359,-54.27349
2021-09-17 08:54:01+00:00,323.0,3.27,319.0,5.19,12.49,47.59359,-54.27349
2021-09-17 09:04:01+00:00,142.0,1.36,143.0,1.67,12.49,47.59359,-54.27349
2021-09-17 09:14:01+00:00,340.0,1.87,333.0,3.34,12.41,47.59359,-54.27349
2021-09-17 09:24:01+00:00,329.0,1.88,355.0,2.88,12.41,47.59359,-54.27349
2021-09-17 09:34:01+00:00,19.0,2.34,21.0,3.28,12.41,47.59359,-54.27349
2021-09-17 09:44:01+00:00,19.0,1.63,20.0,1.92,12.41,47.59359,-54.27349
2021-09-17 09:54:01+00:00,322.0,3.52,330.0,4.05,12.41,47.59359,-54.27349
2021-09-17 10:04:01+00:00,317.0,5.44,314.0,5.96,12.41,47.59359,-54.27349
2021-09-17 10:14:01+00:00,334.0,3.33,338.0,4.02,13.29,47.59359,-54.27349
2021-09-17 10:24:01+00:00,351.0,1.64,344.0,2.04,13.29,47.59359,-54.27349
2021-09-17 10:34:01+00:00,346.0,3.55,345.0,4.7,13.29,47.59359,-54.27349
2021-09-17 10:44:01+00:00,333.0,3.06,331.0,3.86,13.29,47.59359,-54.27349
2021-09-17 10:54:01+00:00,317.0,0.82,313.0,1.16,13.29,47.59359,-54.27349
2021-09-17 11:04:01+00:00,288.0,1.4,295.0,1.86,13.29,47.59359,-54.27349
2021-09-17 11:14:01+00:00,277.0,2.1,276.0,2.6,13.84,47.59359,-54.27349
2021-09-17 11:24:01+00:00,315.0,4.35,315.0,4.68,13.84,47.59359,-54.27349
2021-09-17 11:34:01+00:00,327.0,2.29,321.0,2.92,13.84,47.59359,-54.27349
2021-09-17 11:44:01+00:00,313.0,1.45,310.0,1.95,13.84,47.59359,-54.27349
2021-09-17 11:54:01+00:00,235.0,2.16,236.0,2.48,13.84,47.59359,-54.27349
2021-09-17 12:04:01+00:00,267.0,2.45,273.0,2.91,13.84,47.59359,-54.27349
2021-09-17 12:14:01+00:00,296.0,2.73,298.0,3.13,14.32,47.59359,-54.27349
2021-09-17 12:24:01+00:00,299.0,2.55,292.0,3.03,14.32,47.59359,-54.27349
2021-09-17 12:34:01+00:00,227.0,1.01,234.0,1.32,14.32,47.59359,-54.27349
2021-09-17 12:44:01+00:00,287.0,1.89,287.0,2.32,14.32,47.59359,-54.27349
2021-09-17 12:54:01+00:00,153.0,0.79,143.0,1.1,14.32,47.59359,-54.27349
2021-09-17 13:04:01+00:00,185.0,1.4,189.0,1.64,14.32,47.59359,-54.27349
2021-09-17 13:14:01+00:00,158.0,1.6,154.0,1.77,13.68,47.59359,-54.27349
2021-09-17 13:24:01+00:00,220.0,1.58,224.0,1.78,13.68,47.59359,-54.27349
2021-09-17 13:34:01+00:00,229.0,0.94,217.0,1.18,13.68,47.59359,-54.27349
2021-09-17 13:44:01+00:00,196.0,4.15,201.0,4.42,13.68,47.59359,-54.27349
2021-09-17 13:54:01+00:00,168.0,3.55,167.0,3.75,13.68,47.59359,-54.27349
2021-09-17 14:04:01+00:00,183.0,2.77,187.0,3.11,13.68,47.59359,-54.27349
2021-09-17 14:14:01+00:00,171.0,3.64,174.0,4.08,14.24,47.59359,-54.27349
2021-09-17 14:24:01+00:00,177.0,3.01,175.0,3.21,14.24,47.59359,-54.27349
2021-09-17 14:34:01+00:00,179.0,2.89,179.0,3.16,14.24,47.59359,-54.27349
2021-09-17 14:44:01+00:00,195.0,3.01,197.0,3.23,14.24,47.59359,-54.27349
2021-09-17 14:54:01+00:00,196.0,3.1,195.0,3.37,14.24,47.59359,-54.27349
2021-09-17 15:04:01+00:00,211.0,4.39,212.0,4.74,14.24,47.59359,-54.27349
2021-09-17 15:14:01+00:00,214.0,5.05,214.0,5.27,13.68,47.59359,-54.27349
2021-09-17 15:24:01+00:00,205.0,6.1,206.0,6.51,13.68,47.59359,-54.27349
2021-09-17 15:34:01+00:00,209.0,5.77,212.0,6.39,13.68,47.59359,-54.27349
2021-09-17 15:44:01+00:00,206.0,6.67,205.0,7.26,13.68,47.59359,-54.27349
2021-09-17 15:54:01+00:00,198.0,4.65,200.0,5.02,13.68,47.59359,-54.27349
2021-09-17 16:04:01+00:00,206.0,4.74,210.0,5.1,13.68,47.59359,-54.27349
2021-09-17 16:14:01+00:00,211.0,6.46,210.0,7.18,14.24,47.59359,-54.27349
2021-09-17 16:24:01+00:00,213.0,7.01,211.0,7.67,14.24,47.59359,-54.27349
2021-09-17 16:34:01+00:00,213.0,6.62,206.0,8.47,14.24,47.59359,-54.27349
2021-09-17 16:44:01+00:00,213.0,7.29,212.0,8.17,14.24,47.59359,-54.27349
2021-09-17 16:54:01+00:00,211.0,7.95,212.0,8.69,14.24,47.59359,-54.27349
2021-09-17 17:04:01+00:00,218.0,6.88,218.0,7.64,14.24,47.59359,-54.27349
2021-09-17 17:14:01+00:00,217.0,6.9,217.0,7.65,14.24,47.59359,-54.27349
2021-09-17 17:24:01+00:00,212.0,7.77,214.0,8.39,14.24,47.59359,-54.27349
2021-09-17 17:34:01+00:00,209.0,8.07,209.0,8.97,14.24,47.59359,-54.27349
2021-09-17 17:44:01+00:00,210.0,8.77,211.0,10.08,14.24,47.59359,-54.27349
2021-09-17 17:54:01+00:00,213.0,8.97,215.0,9.69,14.24,47.59359,-54.27349
2021-09-17 18:04:01+00:00,210.0,8.08,209.0,9.1,14.24,47.59359,-54.27349
2021-09-17 18:14:01+00:00,205.0,9.25,208.0,10.11,14.08,47.59359,-54.27349
2021-09-17 18:24:01+00:00,205.0,8.57,204.0,9.87,14.08,47.59359,-54.27349
2021-09-17 18:34:01+00:00,214.0,8.43,218.0,9.89,14.08,47.59359,-54.27349
2021-09-17 18:44:01+00:00,211.0,8.6,212.0,9.63,14.08,47.59359,-54.27349
2021-09-17 18:54:01+00:00,209.0,9.54,212.0,10.35,14.08,47.59359,-54.27349
2021-09-17 19:04:01+00:00,211.0,7.67,212.0,8.33,14.08,47.59359,-54.27349
2021-09-17 19:14:01+00:00,206.0,8.97,205.0,9.88,14.0,47.59359,-54.27349
2021-09-17 19:24:01+00:00,204.0,7.49,206.0,8.49,14.0,47.59359,-54.27349
2021-09-17 19:34:01+00:00,201.0,6.9,203.0,7.76,14.0,47.59359,-54.27349
2021-09-17 19:44:01+00:00,212.0,6.5,207.0,7.16,14.0,47.59359,-54.27349
2021-09-17 19:54:01+00:00,218.0,6.34,222.0,7.43,14.0,47.59359,-54.27349
2021-09-17 20:04:01+00:00,217.0,7.2,222.0,8.56,14.0,47.59359,-54.27349
2021-09-17 20:14:01+00:00,210.0,8.3,209.0,9.51,13.76,47.59359,-54.27349
2021-09-17 20:24:01+00:00,218.0,8.51,222.0,9.27,13.76,47.59359,-54.27349
2021-09-17 20:34:01+00:00,207.0,8.23,207.0,8.96,13.76,47.59359,-54.27349
2021-09-17 20:44:01+00:00,216.0,7.3,227.0,8.97,13.76,47.59359,-54.27349
2021-09-17 20:54:01+00:00,212.0,7.58,212.0,8.41,13.76,47.59359,-54.27349
2021-09-17 21:04:01+00:00,209.0,6.35,212.0,7.01,13.76,47.59359,-54.27349
2021-09-17 21:14:01+00:00,206.0,7.24,206.0,7.82,13.37,47.59359,-54.27349
2021-09-17 21:24:01+00:00,212.0,5.28,219.0,6.22,13.37,47.59359,-54.27349
2021-09-17 21:34:01+00:00,207.0,7.32,208.0,7.87,13.37,47.59359,-54.27349
2021-09-17 21:44:01+00:00,206.0,5.33,207.0,6.42,13.37,47.59359,-54.27349
2021-09-17 21:54:01+00:00,217.0,5.69,220.0,6.88,13.37,47.59359,-54.27349
2021-09-17 22:04:01+00:00,218.0,4.91,220.0,6.18,13.37,47.59359,-54.27349
2021-09-17 22:14:01+00:00,228.0,4.56,231.0,5.67,12.89,47.59359,-54.27349
2021-09-17 22:24:01+00:00,229.0,4.54,223.0,5.3,12.89,47.59359,-54.27349
2021-09-17 22:34:01+00:00,228.0,4.33,228.0,5.0,12.89,47.59359,-54.27349
2021-09-17 22:44:01+00:00,227.0,4.45,228.0,5.08,12.89,47.59359,-54.27349
2021-09-17 22:54:01+00:00,236.0,5.13,246.0,5.97,12.89,47.59359,-54.27349
2021-09-17 23:04:01+00:00,245.0,5.58,245.0,6.8,12.89,47.59359,-54.27349
2021-09-17 23:14:01+00:00,244.0,6.63,246.0,7.06,12.65,47.59359,-54.27349
2021-09-17 23:24:01+00:00,235.0,5.39,235.0,6.11,12.65,47.59359,-54.27349
2021-09-17 23:34:01+00:00,232.0,5.56,232.0,6.27,12.65,47.59359,-54.27349
2021-09-17 23:44:01+00:00,236.0,5.91,237.0,6.3,12.65,47.59359,-54.27349
2021-09-17 23:54:01+00:00,233.0,5.6,234.0,6.26,12.65,47.59359,-54.27349
